This is the latest recevied weather packets stored in our database for station/object SK0BO-13. If no packets are shown the sender has not sent any weather packets the latest 1 day(s).
| Time | Temp. | Humidity | Pressure | Rain* | Wind** | Luminosity | Snow |
|---|---|---|---|---|---|---|---|
| 1778052883 | 25.56° C | - | 997.7 hPa | 0 mm | 0.45 m/s, 163° | - | - |
| 1778050362 | 23.89° C | - | 997.6 hPa | 0 mm | 0.45 m/s, 166° | - | - |
| 1778047842 | 20° C | 100% | 997.5 hPa | 0 mm | 0.89 m/s, 174° | - | - |
| 1778045323 | 15.56° C | 12% | 996.7 hPa | 0 mm | 0.89 m/s, 190° | - | - |
| 1778042803 | 10.56° C | 22% | 996.7 hPa | 0 mm | 1.34 m/s, 192° | - | - |
| 1778040282 | 4.44° C | 28% | 996.7 hPa | 0 mm | 1.34 m/s, 170° | - | - |
| 1778037762 | 3.89° C | 29% | 996.7 hPa | 0 mm | 1.34 m/s, 169° | - | - |
| 1778035243 | 3.89° C | 29% | 995.9 hPa | 0 mm | 1.34 m/s, 169° | - | - |
| 1778032722 | 4.44° C | 28% | 995.7 hPa | 0 mm | 1.34 m/s, 170° | - | - |
| 1778030202 | 4.44° C | 26% | 995.7 hPa | 0 mm | 1.34 m/s, 170° | - | - |
| 1778027683 | 5° C | 24% | 995.4 hPa | 0 mm | 1.34 m/s, 171° | - | - |
| 1778025162 | 5.56° C | 23% | 994.8 hPa | 0 mm | 1.34 m/s, 170° | - | - |
| 1778022642 | 6.11° C | 19% | 994.7 hPa | 0 mm | 0.89 m/s, 170° | - | - |
| 1778020122 | 6.67° C | 24% | 994.7 hPa | 0 mm | 1.34 m/s, 174° | - | - |
| 1778017602 | 7.78° C | 22% | 994.7 hPa | 0 mm | 1.34 m/s, 196° | - | - |
| 1778015082 | 8.89° C | 22% | 993 hPa | 0 mm | 1.34 m/s, 205° | - | - |
| 1778012562 | 9.44° C | 18% | 992.7 hPa | 0 mm | 1.34 m/s, 182° | - | - |
| 1778010042 | 10° C | 12% | 992.7 hPa | 0 mm | 1.34 m/s, 184° | - | - |
| 1778007522 | 11.67° C | - | 991.7 hPa | 0 mm | 1.34 m/s, 189° | - | - |
| 1778005002 | 13.33° C | - | 991.7 hPa | 0 mm | 1.34 m/s, 190° | - | - |
| 1778002483 | 16.11° C | - | 990.9 hPa | 0 mm | 0.89 m/s, 195° | - | - |
| 1777999962 | 23.89° C | - | 990.7 hPa | 0 mm | 0.89 m/s, 183° | - | - |
| 1777997442 | 24.44° C | - | 990.7 hPa | 0 mm | 0.89 m/s, 181° | - | - |
| 1777994922 | 23.89° C | - | 990.7 hPa | 0 mm | 0.45 m/s, 176° | - | - |
| 1777992403 | 26.11° C | - | 990.7 hPa | 0 mm | 0.45 m/s, 172° | - | - |
* Rain latest hour (hover to see other rain measurements)
** Current wind speed in m/s (hover to see current wind gust speed)